Regional Weather Roundup
Issued by NWS

Home | Current Version | Previous Version | Text Only | Print | Product List | Glossary On
Versions: 1 2 3 4 5 6 7 8 9 10 11 12 13 14 15 16 17 18 19 20 21 22 23 24 25 26 27 28 29 30 31 32 33 34 35 36 37 38 39 40 41 42 43 44 45 46 47 48 49 50
000
ASUS43 KLSX 182257
RWRMO

WEATHER SUMMARY FOR MISSOURI
NATIONAL WEATHER SERVICE SPRINGFIELD MO
600 PM CDT WED OCT 18 2017

NOTE: "FAIR" INDICATES FEW OR NO CLOUDS BELOW 12,000 FEET WITH NO
       SIGNIFICANT WEATHER AND/OR OBSTRUCTIONS TO VISIBILITY.
       CURRENT SKY AND/OR WEATHER CONDITIONS ARE NOT AVAILABLE FOR
       CHILLICOTHE AND FARMINGTON.

MOZ001>031-035>038-043-044-053-054-190000-
...NORTHERN AND WESTERN MISSOURI...

CITY           SKY/WX    TMP DP  RH WIND       PRES   REMARKS
KANSAS CTY INT MOCLDY    69  51  52 S9        30.00R
LEE`S SUMMIT   PTCLDY    70  51  51 S12       30.01F
ST JOSEPH      CLEAR     71  52  50 S9        29.98S
CHILLICOTHE      N/A     72  50  45 S8        30.01R

$$
MOZ066>068-077>081-088>096-101>105-190000-
...SOUTHWEST MISSOURI...

CITY           SKY/WX    TMP DP  RH WIND       PRES   REMARKS
SPRINGFIELD    CLEAR     73  44  35 S9        30.07F
JOPLIN         CLEAR     72  49  44 S10       30.05F
BRANSON        PTCLDY    72  43  35 SE7       30.12S

$$
MOZ032>034-039>042-045>050-055>058-069>072-190000-
...CENTRAL MISSOURI...

CITY           SKY/WX    TMP DP  RH WIND       PRES   REMARKS
COLUMBIA       NOT AVBL
JEFFERSON CITY CLEAR     74  43  32 S5        30.06R
ROLLA          CLEAR     70  44  39 S10       30.09S
SEDALIA        CLEAR     71  51  49 S9        30.05R
WARRENSBURG    PTCLDY    70  48  46 S8        30.02S

$$
MOZ051-052-059>065-190000-
...EAST CENTRAL MISSOURI...

CITY           SKY/WX    TMP DP  RH WIND       PRES   REMARKS
ST LOUIS INTL  PTCLDY    72  46  39 S12       30.09S

$$
MOZ072>076-082>087-097>100-106>115-190000-
...SOUTH CENTRAL AND SOUTHEAST MISSOURI...

CITY           SKY/WX    TMP DP  RH WIND       PRES   REMARKS
CAPE GIRARDEAU CLEAR     69  47  45 S10       30.15F
POPLAR BLUFF   CLEAR     71  46  40 S8        30.15R
WEST PLAINS    CLEAR     70  45  40 S5        30.14S

$$



USA.gov is the U.S. government's official web portal to all federal, state and local government web resources and services.